[[{"header":{"parameterUnit":"m.s-1","parameterCategory":1,"la1":30.2991,"la2":30.254,"lo1":-89.0895,"lo2":-89.0444,"dy":0.0017,"dx":0.0017,"nx":28,"ny":28,"refTime":"2025-01-28T03:00:00:Z","depth":0,"parameterNumber":2,"parameterNumberName":"U-component_of_WINDS"},"data":[0,0,0,0,0,0,0,0,0,0,0,0,0,0,0,0,0,0,0,0,0,0,0,0,0,0,0,0,0,0,0,0,0,0,0,0,0,0,0,0,0,0,0,0,0,0,0,0,0,0,0,0,0,0,0,0,0,0,1.5635,1.5635,0,1.5636,1.5636,1.5636,1.5589,1.5588,1.5586,1.5585,1.5588,1.5589,1.5591,0,0,0,0,0,0,0,0,0,0,0,0,0,1.5596,1.5597,1.5635,1.5635,1.5635,1.5636,1.5636,1.5636,1.5589,1.5588,1.5586,1.5585,1.5588,1.5589,1.5591,0,0,0,0,0,0,0,0,0,0,0,0,0,1.5607,1.5597,1.5635,1.5612,1.561,1.5636,1.5636,1.5636,1.5589,1.5588,1.5586,1.5584,1.5587,1.5589,1.5591,1.5641,0,0,1.5597,1.5598,0,0,0,0,0,0,0,0,1.5606,1.5608,1.5615,1.5613,1.5611,1.561,1.5623,1.5638,1.559,1.5597,1.5585,1.5583,1.5597,1.5598,1.5603,1.5641,1.5641,1.5597,1.5598,1.5599,1.5599,0,0,0,0,0,0,0,1.5605,1.5608,1.5636,1.5615,1.5613,1.5602,1.5602,1.5626,1.5608,1.5596,1.5593,1.5594,1.5596,1.5601,1.5602,1.5641,1.5597,1.5599,1.56,1.56,1.5724,1.5726,0,0,0,0,0,0,1.5607,1.5608,1.5636,1.5636,1.5604,1.5605,1.5604,1.5613,1.5608,1.5605,1.5595,1.5591,1.5599,1.56,1.5602,1.5663,1.5599,1.5601,1.5602,1.5721,1.5724,1.5726,0,0,0,0,0,0,1.5607,1.561,1.5636,1.5621,1.5623,1.5607,1.5617,1.5614,1.5619,1.5607,1.5603,1.5604,1.5597,1.56,1.5632,1.5662,1.5601,1.5603,1.5719,1.5722,1.5725,1.5782,0,0,0,0,0,0,1.5606,1.561,1.5628,1.5621,1.5624,1.5665,1.5619,1.5615,1.5622,1.5617,1.5614,1.5611,1.5596,1.563,1.5634,1.5663,1.5605,1.5716,1.572,1.5724,1.5778,1.5787,1.5795,0,0,0,0,0,1.5605,1.5644,1.5629,1.5633,1.5646,1.5666,1.5668,1.5649,1.5624,1.5643,1.5636,1.5611,1.5658,1.5633,1.5638,1.5668,1.5714,1.5719,1.5724,1.5774,1.5785,1.5795,0,0,0,0,0,0,1.5655,1.5643,1.5626,1.5664,1.5667,1.5658,1.5681,1.5661,1.5671,1.5666,1.5642,1.5642,1.5679,1.5676,1.565,1.5718,1.5682,1.5688,1.5718,1.5729,1.5738,1.5738,1.5606,0,0,0,0,0,1.567,1.5687,1.5675,1.571,1.5712,1.5697,1.5705,1.569,1.5692,1.5693,1.5688,1.5691,1.5707,1.5717,1.5731,1.5777,1.5777,1.58,1.5809,1.5816,1.5822,1.5849,1.5861,1.5742,1.5742,1.5742,0,0,1.5702,1.5698,1.571,1.572,1.572,1.574,1.5698,1.5719,1.5734,1.5696,1.5727,1.5724,1.5726,1.5767,1.5784,1.5766,1.5855,1.5822,1.5828,1.583,1.5856,1.5867,1.5877,1.5745,1.5745,1.5744,0,0,1.5771,1.5768,1.5798,1.58,1.5801,1.579,1.5798,1.5793,1.5789,1.5819,1.5792,1.581,1.5836,1.584,1.5846,1.5919,1.5898,1.5924,1.597,1.5997,1.6006,1.6014,1.6043,1.6053,1.5929,1.593,1.593,0,1.5811,1.5838,1.5816,1.5841,1.5848,1.5814,1.5846,1.5848,1.5854,1.586,1.5839,1.5873,1.5872,1.5915,1.5933,1.5937,1.5947,1.5925,1.6006,1.6014,1.6022,1.6049,1.606,1.5933,1.5933,1.5932,1.5932,0,1.5889,1.5909,1.5933,1.594,1.5949,1.5977,1.5961,1.5973,1.5958,1.595,1.5984,1.5981,1.5995,1.6004,1.5989,1.6045,1.6034,1.601,1.5974,1.6037,1.6062,1.6072,1.5938,1.5936,1.5936,1.5935,0,0,1.599,1.5985,1.5994,1.5998,1.5998,1.6013,1.604,1.6054,1.6066,1.6071,1.6096,1.612,1.6099,1.6105,1.609,1.6114,1.6175,1.6087,1.6087,1.6106,1.6241,1.626,1.6273,1.6161,1.6163,1.6164,1.6241,0,1.6059,1.6104,1.6087,1.6135,1.6154,1.6123,1.6148,1.6151,1.6145,1.6162,1.6155,1.6174,1.6143,1.6147,1.6169,1.6163,1.6203,1.6157,1.6185,1.6187,1.6188,1.6285,1.6306,1.6378,1.6251,1.6252,1.6254,0,1.6145,1.6155,1.6205,1.6204,1.6211,1.6233,1.6245,1.6261,1.6265,1.6259,1.6268,1.6249,1.6277,1.624,1.6281,1.6251,1.6261,1.6261,1.6263,1.6266,1.6225,1.6294,1.6401,1.6413,1.6268,1.6267,1.6266,0,1.6217,1.6242,1.6276,1.628,1.6278,1.6295,1.6296,1.6297,1.6308,1.6319,1.6326,1.634,1.6348,1.6361,1.6347,1.632,1.6391,1.6352,1.6389,1.639,1.6407,1.6406,1.6519,1.641,1.641,1.6409,1.6409,0,1.6297,1.633,1.6309,1.633,1.6367,1.6346,1.6383,1.638,1.6383,1.6404,1.6378,1.6399,1.6379,1.6398,1.6388,1.6425,1.6428,1.6426,1.6424,1.643,1.6431,1.6438,1.6433,1.6412,1.6412,1.6411,1.6411,0,1.6384,1.6371,1.6407,1.6402,1.6402,1.643,1.6427,1.6448,1.644,1.6468,1.6473,1.6462,1.6484,1.6471,1.6494,1.6487,1.6536,1.6525,1.6535,1.6533,1.6572,1.657,1.6696,1.6713,1.659,1.6591,1.6592,0,1.6437,1.6462,1.6461,1.6473,1.6475,1.6495,1.6506,1.6487,1.65,1.6507,1.6528,1.6547,1.6563,1.66,1.6595,1.6612,1.6603,1.6646,1.6606,1.6613,1.6607,1.6607,1.6611,1.6655,1.6657,1.6658,1.6659,0,1.6534,1.6527,1.6543,1.6557,1.6571,1.6581,1.6589,1.6601,1.6583,1.6599,1.6621,1.6633,1.6656,1.6677,1.6693,1.6695,1.6675,1.6671,1.6681,1.6689,1.6695,1.6695,1.656,1.6669,1.6668,1.6667,1.6666,1.6666,1.6607,1.6629,1.6632,1.6652,1.6656,1.6665,1.6685,1.6681,1.6699,1.6716,1.6704,1.6732,1.6738,1.6757,1.6761,1.6784,1.6767,1.678,1.6784,1.6789,1.6796,1.669,1.6786,1.6786,1.6785,1.6785,1.6785,0,1.6705,1.6706,1.6724,1.6737,1.6753,1.6732,1.6741,1.6756,1.678,1.6787,1.6803,1.683,1.6851,1.6848,1.6867,1.6886,1.6878,1.6892,1.6892,1.6893,1.6808,1.6799,1.6899,1.6899,1.6899,1.6899,1.6899,1.6898,1.6758,1.6795,1.6788,1.6828,1.6828,1.6855,1.6862,1.6871,1.6877,1.6908,1.6925,1.6923,1.6927,1.6947,1.6966,1.6964,1.6974,1.6993,1.6988,1.691,1.6898,1.6888,1.6879,1.6994,1.6994,1.7072,1.7072,1.7073]},{"header":{"parameterUnit":"m.s-1","parameterCategory":1,"la1":30.2991,"la2":30.254,"lo1":-89.0895,"lo2":-89.0444,"dy":0.0017,"dx":0.0017,"nx":28,"ny":28,"refTime":"2025-01-28T03:00:00:Z","depth":0,"parameterNumber":3,"parameterNumberName":"V-component_of_WINDS"},"data":[0,0,0,0,0,0,0,0,0,0,0,0,0,0,0,0,0,0,0,0,0,0,0,0,0,0,0,0,0,0,0,0,0,0,0,0,0,0,0,0,0,0,0,0,0,0,0,0,0,0,0,0,0,0,0,0,0,0,-1.0585,-1.0583,0,-1.039,-1.0388,-1.0386,-1.0386,-1.0388,-1.0391,-1.0393,-1.0186,-1.0179,-1.0171,0,0,0,0,0,0,0,0,0,0,0,0,0,-1.0952,-1.0945,-1.0585,-1.0583,-1.0581,-1.0391,-1.0388,-1.0385,-1.0385,-1.0388,-1.0391,-1.0394,-1.0189,-1.018,-1.017,0,0,0,0,0,0,0,0,0,0,0,0,0,-1.0778,-1.0943,-1.0586,-1.0558,-1.0553,-1.0391,-1.0388,-1.0384,-1.0385,-1.0388,-1.0392,-1.0396,-1.0192,-1.0181,-1.0169,-1.0019,0,0,-1.0133,-1.0128,0,0,0,0,0,0,0,0,-1.0788,-1.0765,-1.0564,-1.0559,-1.0554,-1.0416,-1.0441,-1.0262,-1.0384,-1.0448,-1.0393,-1.0398,-1.0259,-1.0242,-1.0197,-1.001,-1.0001,-1.0132,-1.0125,-1.0119,-1.0116,0,0,0,0,0,0,0,-1.08,-1.0773,-1.0508,-1.0561,-1.0555,-1.0553,-1.0533,-1.0407,-1.0334,-1.0443,-1.0443,-1.042,-1.0257,-1.0208,-1.0192,-0.9998,-1.0132,-1.0122,-1.0114,-1.011,-0.9679,-0.9675,0,0,0,0,0,0,-1.0819,-1.0783,-1.0514,-1.0502,-1.0683,-1.0543,-1.0521,-1.0457,-1.0336,-1.0321,-1.0417,-1.0421,-1.0227,-1.0206,-1.0185,-1.0003,-1.012,-1.0108,-1.0102,-0.9683,-0.9678,-0.9673,0,0,0,0,0,0,-1.0827,-1.0795,-1.0522,-1.0642,-1.0608,-1.0533,-1.0461,-1.0451,-1.0402,-1.0316,-1.0303,-1.0381,-1.0229,-1.0201,-1.0061,-0.9995,-1.0103,-1.0092,-0.9688,-0.9682,-0.9676,-0.9637,0,0,0,0,0,0,-1.0837,-1.0798,-1.0741,-1.0641,-1.0601,-1.0403,-1.0457,-1.0444,-1.0382,-1.0386,-1.0279,-1.0265,-1.023,-1.0079,-1.005,-0.9981,-1.0083,-0.9694,-0.9685,-0.9678,-0.9643,-0.963,-0.9618,0,0,0,0,0,-1.085,-1.0736,-1.0739,-1.0706,-1.053,-1.0399,-1.0376,-1.0341,-1.0377,-1.0319,-1.0264,-1.0268,-1.0008,-1.0065,-1.0031,-0.9958,-0.9698,-0.9688,-0.9678,-0.9649,-0.9632,-0.9618,0,0,0,0,0,0,-1.0827,-1.0723,-1.0724,-1.0574,-1.0496,-1.04,-1.0325,-1.0324,-1.0231,-1.0238,-1.0195,-1.0171,-1.0031,-0.9981,-1.0046,-0.9808,-0.9857,-0.984,-0.9846,-0.9829,-0.9817,-0.9831,-1.0073,0,0,0,0,0,-1.0806,-1.0711,-1.0623,-1.05,-1.0461,-1.04,-1.0342,-1.0322,-1.0238,-1.0204,-1.0139,-1.0055,-0.9955,-0.9889,-0.9792,-0.9636,-0.9613,-0.957,-0.9557,-0.9547,-0.9533,-0.9447,-0.9427,-0.9641,-0.9641,-0.9641,0,0,-1.0758,-1.0689,-1.0631,-1.0494,-1.0431,-1.0332,-1.0372,-1.0265,-1.0191,-1.0187,-1.0051,-1.0001,-0.9905,-0.9757,-0.9688,-0.971,-0.9469,-0.9534,-0.9527,-0.9518,-0.9435,-0.9415,-0.9397,-0.9635,-0.9636,-0.9637,0,0,-1.0622,-1.056,-1.0451,-1.0388,-1.0293,-1.0254,-1.0228,-1.0132,-1.0099,-0.9963,-0.9958,-0.9868,-0.9696,-0.9628,-0.9571,-0.9412,-0.9411,-0.9381,-0.9313,-0.923,-0.9214,-0.9198,-0.9141,-0.9122,-0.9367,-0.9367,-0.9367,0,-1.0574,-1.0427,-1.0395,-1.0288,-1.0228,-1.0223,-1.0111,-1.0051,-0.9928,-0.9885,-0.9913,-0.9698,-0.9632,-0.9469,-0.943,-0.9384,-0.9352,-0.9392,-0.9219,-0.9203,-0.9189,-0.9134,-0.9113,-0.9364,-0.9364,-0.9364,-0.9365,0,-1.0373,-1.0272,-1.0195,-1.008,-1.001,-0.9902,-0.9851,-0.9785,-0.9771,-0.9728,-0.959,-0.9512,-0.94,-0.9359,-0.9343,-0.9193,-0.921,-0.9229,-0.9277,-0.9166,-0.9114,-0.9092,-0.9359,-0.936,-0.9361,-0.9362,0,0,-1.0215,-1.0086,-1.0058,-1.0006,-0.9902,-0.9822,-0.9713,-0.9606,-0.955,-0.9465,-0.9372,-0.9228,-0.9245,-0.918,-0.9157,-0.9084,-0.8963,-0.9112,-0.9109,-0.9087,-0.8793,-0.878,-0.8757,-0.8963,-0.8959,-0.8956,-0.8802,0,-1.0068,-0.9877,-0.9846,-0.9678,-0.9583,-0.9578,-0.9483,-0.9408,-0.9365,-0.9278,-0.923,-0.9128,-0.9159,-0.912,-0.9048,-0.8993,-0.8904,-0.9004,-0.8875,-0.8871,-0.8899,-0.8729,-0.8714,-0.8572,-0.8781,-0.8777,-0.8775,0,-0.987,-0.9784,-0.9608,-0.9518,-0.9477,-0.9393,-0.9293,-0.9209,-0.9124,-0.9098,-0.9027,-0.9013,-0.8898,-0.8953,-0.8794,-0.8863,-0.8809,-0.8774,-0.8768,-0.8754,-0.8816,-0.871,-0.8526,-0.8505,-0.8742,-0.8745,-0.8747,0,-0.9773,-0.9613,-0.9487,-0.9443,-0.9335,-0.9276,-0.9227,-0.9146,-0.9084,-0.8996,-0.8955,-0.8854,-0.8798,-0.8719,-0.8677,-0.8721,-0.8521,-0.8572,-0.8496,-0.8497,-0.8453,-0.8457,-0.8258,-0.8419,-0.8419,-0.8419,-0.842,0,-0.9611,-0.9503,-0.9442,-0.9364,-0.9243,-0.9208,-0.9088,-0.9041,-0.8969,-0.8881,-0.8869,-0.8787,-0.8737,-0.8646,-0.8613,-0.8487,-0.8461,-0.8436,-0.8429,-0.8437,-0.844,-0.84,-0.8409,-0.8414,-0.8415,-0.8416,-0.8417,0,-0.9482,-0.9437,-0.9299,-0.9209,-0.9184,-0.9099,-0.9021,-0.8945,-0.8904,-0.8793,-0.8765,-0.8699,-0.8592,-0.8543,-0.841,-0.8388,-0.8244,-0.8243,-0.8274,-0.8271,-0.8197,-0.8205,-0.7965,-0.7932,-0.8115,-0.8114,-0.8112,0,-0.9382,-0.9299,-0.9202,-0.9144,-0.9095,-0.9,-0.8938,-0.8899,-0.8835,-0.8733,-0.8668,-0.8562,-0.8475,-0.8304,-0.8243,-0.8142,-0.8138,-0.8061,-0.8123,-0.8134,-0.8137,-0.8143,-0.8134,-0.805,-0.8048,-0.8047,-0.8046,0,-0.9209,-0.9191,-0.9103,-0.9007,-0.8934,-0.8855,-0.8778,-0.8731,-0.868,-0.8607,-0.85,-0.8433,-0.8299,-0.8193,-0.8088,-0.8036,-0.8032,-0.8027,-0.8004,-0.8012,-0.8033,-0.8021,-0.8243,-0.8032,-0.8034,-0.8035,-0.8035,-0.8036,-0.909,-0.9018,-0.8938,-0.8841,-0.878,-0.8709,-0.8633,-0.8584,-0.8494,-0.8384,-0.8366,-0.8252,-0.8169,-0.8028,-0.7973,-0.7881,-0.7899,-0.7866,-0.7857,-0.785,-0.7846,-0.8049,-0.7862,-0.7862,-0.7863,-0.7863,-0.7863,0,-0.8917,-0.8867,-0.8777,-0.8672,-0.8595,-0.8601,-0.8517,-0.8451,-0.8351,-0.8276,-0.8191,-0.8068,-0.7966,-0.7898,-0.7794,-0.7734,-0.7729,-0.7708,-0.7712,-0.77,-0.7835,-0.7866,-0.7714,-0.7714,-0.7714,-0.7714,-0.7714,-0.7714,-0.8818,-0.8695,-0.8668,-0.8515,-0.8464,-0.8354,-0.8305,-0.8239,-0.8179,-0.8043,-0.7959,-0.7917,-0.7844,-0.7735,-0.7641,-0.7624,-0.7586,-0.7564,-0.7547,-0.7675,-0.769,-0.7705,-0.7734,-0.7556,-0.7556,-0.7419,-0.7418,-0.7417]}]]